Location: Prairie Dale
(45.6972°N, 104.5033°W)
Time: 06:19:07
(UTC+00:00)

AO-109 - Pass Details

Date: 05 July 2022
Orbit: 469 x 506 km, 60.7° (Epoch: 12 August)

Event Time Altitude Azimuth Distance (km) Brightness Sun altitude
Exits shadow 08:51:10 17° 141° (SE) 1,294 ? -17.2°
Maximum altitude 08:52:10 18° 119° (ESE) 1,224 ? -17.1°
Drops below altitude 10° 08:54:47 10° 75° (ENE) 1,663 ? -16.9°
Sets 08:57:25 0° 56° (ENE) 2,557 ? -16.7°
